| time (UTC) | temp C | wind direction | speed KPH | gust KPH | rain 1hr cm | rain 24hr cm | rain mn cm | humidity % | barometer mb |
| 20260507065919 | 13 | 58 | 8.0 | 1.6 | 0.00 | 0.00 | 0.00 | ||
| 20260507064912 | 13 | 1 | 8.0 | 4.8 | 0.00 | 0.00 | 0.00 | ||
| 20260507063906 | 13 | 48 | 4.8 | 1.6 | 0.00 | 0.00 | 0.00 | ||
| 20260507062900 | 13 | 89 | 6.4 | 8.0 | 0.00 | 0.00 | 0.00 | ||
| 20260507061905 | 13 | 14 | 6.4 | 3.2 | 0.00 | 0.00 | 0.00 | ||
| 20260507060849 | 13 | 8 | 3.2 | 20.9 | 0.00 | 0.00 | 0.00 | ||
| 20260507055838 | 14 | 347 | 1.6 | 6.4 | 0.00 | 0.00 | 0.00 | ||
| 20260507054832 | 15 | 4 | 0.0 | 0.0 | 0.00 | 0.00 | 0.00 | ||
| 20260507053825 | 15 | 357 | 3.2 | 4.8 | 0.00 | 0.00 | 0.00 | ||
| 20260507052821 | 15 | 8 | 1.6 | 4.8 | 0.00 | 0.00 | 0.00 | ||
| 20260507051812 | 15 | 63 | 8.0 | 3.2 | 0.00 | 0.00 | 0.00 | ||
| 20260507050805 | 16 | 340 | 1.6 | 3.2 | 0.00 | 0.00 | 0.00 | ||
| 20260507045758 | 17 | 39 | 6.4 | 6.4 | 0.00 | 0.00 | 0.00 | ||
| 20260507044751 | 17 | 4 | 4.8 | 4.8 | 0.00 | 0.00 | 0.00 | ||
| 20260507043801 | 17 | 3 | 4.8 | 4.8 | 0.00 | 0.00 | 0.00 | ||
| 20260507042745 | 17 | 328 | 6.4 | 1.6 | 0.00 | 0.00 | 0.00 | ||
| 20260507041738 | 17 | 35 | 1.6 | 3.2 | 0.00 | 0.00 | 0.00 | ||
| 20260507040728 | 18 | 63 | 4.8 | 0.0 | 0.00 | 0.00 | 0.00 | ||
| 20260507034718 | 17 | 255 | 4.8 | 6.4 | 0.00 | 0.00 | 0.00 | ||
| 20260507033713 | 17 | 298 | 3.2 | 1.6 | 0.00 | 0.00 | 0.00 | ||
| 20260507032707 | 17 | 0 | 0.0 | 0.0 | 0.00 | 0.00 | 0.00 | ||
| 20260507031701 | 17 | 240 | 0.0 | 0.0 | 0.00 | 0.00 | 0.00 | ||
| 20260507030653 | 17 | 240 | 0.0 | 0.0 | 0.00 | 0.00 | 0.00 | ||
| 20260507025648 | 17 | 240 | 0.0 | 0.0 | 0.00 | 0.00 | 0.00 | ||
| 20260507024642 | 17 | 240 | 0.0 | 0.0 | 0.00 | 0.00 | 0.00 | ||
| 20260507023641 | 17 | 240 | 0.0 | 0.0 | 0.00 | 0.00 | 0.00 | ||
| 20260507022621 | 17 | 240 | 0.0 | 0.0 | 0.00 | 0.00 | 0.00 | ||
| 20260507021613 | 17 | 240 | 0.0 | 0.0 | 0.00 | 0.00 | 0.00 | ||
| 20260507020623 | 17 | 240 | 0.0 | 0.0 | 0.00 | 0.00 | 0.00 | ||
| 20260507015604 | 18 | 240 | 0.0 | 0.0 | 0.00 | 0.00 | 0.00 | ||
| 20260507014559 | 18 | 240 | 0.0 | 0.0 | 0.00 | 0.00 | 0.00 | ||
| 20260507013557 | 18 | 240 | 0.0 | 0.0 | 0.00 | 0.00 | 0.00 | ||
| 20260507012551 | 18 | 256 | 3.2 | 3.2 | 0.00 | 0.00 | 0.00 | ||
| 20260507011543 | 18 | 267 | 3.2 | 3.2 | 0.00 | 0.00 | 0.00 | ||
| 20260507010531 | 18 | 242 | 3.2 | 3.2 | 0.00 | 0.00 | 0.00 | ||
| 20260507004530 | 18 | 212 | 0.0 | 0.0 | 0.00 | 0.00 | 0.00 | ||
| 20260507003520 | 18 | 246 | 4.8 | 4.8 | 0.00 | 0.00 | 0.00 | ||
| 20260507001515 | 18 | 252 | 9.7 | 11.3 | 0.00 | 0.00 | 0.00 | ||
| 20260507000506 | 18 | 259 | 9.7 | 8.0 | 0.00 | 0.00 | 0.00 | ||
| 20260506235459 | 18 | 238 | 11.3 | 6.4 | 0.00 | 0.00 | 0.00 | ||
| 20260506233456 | 19 | 236 | 8.0 | 6.4 | 0.00 | 0.00 | 0.00 | ||
| 20260506232448 | 20 | 232 | 6.4 | 0.0 | 0.00 | 0.00 | 0.00 | ||
| 20260506231443 | 20 | 240 | 9.7 | 9.7 | 0.00 | 0.00 | 0.00 | ||
| 20260506230435 | 20 | 255 | 12.9 | 11.3 | 0.00 | 0.00 | 0.00 | ||
| 20260506225429 | 20 | 242 | 12.9 | 12.9 | 0.00 | 0.00 | 0.00 | ||
| 20260506224424 | 20 | 246 | 16.1 | 11.3 | 0.00 | 0.00 | 0.00 | ||
| 20260506223418 | 20 | 233 | 14.5 | 9.7 | 0.00 | 0.00 | 0.00 | ||
| 20260506222414 | 20 | 255 | 14.5 | 14.5 | 0.00 | 0.00 | 0.00 | ||
| 20260506221404 | 21 | 259 | 16.1 | 14.5 | 0.00 | 0.00 | 0.00 | ||
| 20260506220355 | 21 | 243 | 14.5 | 19.3 | 0.00 | 0.00 | 0.00 | ||
| 20260506215352 | 21 | 225 | 17.7 | 16.1 | 0.00 | 0.00 | 0.00 | ||
| 20260506214336 | 21 | 270 | 12.9 | 11.3 | 0.00 | 0.00 | 0.00 | ||
| 20260506213329 | 22 | 259 | 17.7 | 19.3 | 0.00 | 0.00 | 0.00 | ||
| 20260506212323 | 21 | 252 | 16.1 | 17.7 | 0.00 | 0.00 | 0.00 | ||
| 20260506211316 | 21 | 255 | 20.9 | 17.7 | 0.00 | 0.00 | 0.00 | ||
| 20260506210311 | 22 | 256 | 20.9 | 20.9 | 0.00 | 0.00 | 0.00 | ||
| 20260506205306 | 23 | 259 | 25.7 | 27.4 | 0.00 | 0.00 | 0.00 | ||
| 20260506204255 | 23 | 277 | 19.3 | 14.5 | 0.00 | 0.00 | 0.00 | ||
| 20260506203251 | 22 | 263 | 22.5 | 20.9 | 0.00 | 0.00 | 0.00 | ||
| 20260506201242 | 22 | 253 | 17.7 | 27.4 | 0.00 | 0.00 | 0.00 | ||
| 20260506200233 | 22 | 262 | 14.5 | 17.7 | 0.00 | 0.00 | 0.00 | ||
| 20260506193219 | 21 | 250 | 20.9 | 29.0 | 0.00 | 0.00 | 0.00 | ||
| 20260506192211 | 21 | 240 | 27.4 | 24.1 | 0.00 | 0.00 | 0.00 | ||
| 20260506191207 | 21 | 236 | 20.9 | 20.9 | 0.00 | 0.00 | 0.00 | ||
| 20260506190200 | 22 | 248 | 22.5 | 17.7 | 0.00 | 0.00 | 0.00 | ||
| 20260506185143 | 21 | 219 | 33.8 | 20.9 | 0.00 | 0.00 | 0.00 | ||
| 20260506184138 | 22 | 239 | 19.3 | 22.5 | 0.00 | 0.00 | 0.00 | ||
| 20260506183136 | 23 | 231 | 29.0 | 24.1 | 0.00 | 0.00 | 0.00 | ||
| 20260506182128 | 22 | 259 | 22.5 | 33.8 | 0.00 | 0.00 | 0.00 | ||
| 20260506181118 | 22 | 246 | 24.1 | 24.1 | 0.00 | 0.00 | 0.00 | ||
| 20260506180111 | 21 | 256 | 32.2 | 14.5 | 0.00 | 0.00 | 0.00 | ||
| 20260506175111 | 21 | 252 | 24.1 | 22.5 | 0.00 | 0.00 | 0.00 | ||
| 20260506174103 | 21 | 257 | 19.3 | 29.0 | 0.00 | 0.00 | 0.00 | ||
| 20260506173055 | 21 | 218 | 33.8 | 14.5 | 0.00 | 0.00 | 0.00 | ||
| 20260506172049 | 20 | 262 | 22.5 | 17.7 | 0.00 | 0.00 | 0.00 | ||
| 20260506171040 | 20 | 240 | 22.5 | 27.4 | 0.00 | 0.00 | 0.00 | ||
| 20260506170036 | 19 | 252 | 27.4 | 43.5 | 0.00 | 0.00 | 0.00 | ||
| 20260506165032 | 21 | 250 | 24.1 | 17.7 | 0.00 | 0.00 | 0.00 | ||
| 20260506164028 | 20 | 170 | 14.5 | 6.4 | 0.00 | 0.00 | 0.00 | ||
| 20260506163018 | 17 | 250 | 8.0 | 9.7 | 0.00 | 0.00 | 0.00 | ||
| 20260506162006 | 18 | 222 | 9.7 | 6.4 | 0.00 | 0.00 | 0.00 | ||
| 20260506161002 | 18 | 231 | 8.0 | 8.0 | 0.00 | 0.00 | 0.00 | ||
| 20260506155958 | 18 | 158 | 4.8 | 0.0 | 0.00 | 0.00 | 0.00 | ||
| 20260506154951 | 18 | 184 | 4.8 | 0.0 | 0.00 | 0.00 | 0.00 | ||
| 20260506152940 | 17 | 257 | 19.3 | 19.3 | 0.00 | 0.00 | 0.00 | ||
| 20260506151935 | 18 | 274 | 12.9 | 8.0 | 0.00 | 0.00 | 0.00 | ||
| 20260506150932 | 18 | 274 | 11.3 | 16.1 | 0.00 | 0.00 | 0.00 | ||
| 20260506145923 | 18 | 222 | 14.5 | 8.0 | 0.00 | 0.00 | 0.00 | ||
| 20260506144915 | 18 | 228 | 9.7 | 17.7 | 0.00 | 0.00 | 0.00 | ||
| 20260506143906 | 18 | 252 | 17.7 | 9.7 | 0.00 | 0.00 | 0.00 | ||
| 20260506142900 | 18 | 238 | 19.3 | 20.9 | 0.00 | 0.00 | 0.00 | ||
| 20260506140842 | 20 | 215 | 17.7 | 11.3 | 0.00 | 0.00 | 0.00 | ||
| 20260506135837 | 20 | 249 | 16.1 | 14.5 | 0.00 | 0.00 | 0.00 | ||
| 20260506134829 | 19 | 238 | 17.7 | 19.3 | 0.00 | 0.00 | 0.00 | ||
| 20260506133822 | 20 | 284 | 9.7 | 14.5 | 0.00 | 0.00 | 0.00 | ||
| 20260506132817 | 20 | 252 | 20.9 | 20.9 | 0.00 | 0.00 | 0.00 | ||
| 20260506131813 | 21 | 233 | 14.5 | 3.2 | 0.00 | 0.00 | 0.00 | ||
| 20260506130808 | 20 | 246 | 16.1 | 17.7 | 0.00 | 0.00 | 0.00 | ||
| 20260506125803 | 20 | 259 | 12.9 | 12.9 | 0.00 | 0.00 | 0.00 | ||
| 20260506124758 | 20 | 232 | 14.5 | 20.9 | 0.00 | 0.00 | 0.00 | ||
| 20260506123752 | 19 | 249 | 32.2 | 25.7 | 0.00 | 0.00 | 0.00 | ||
| 20260506122748 | 20 | 242 | 19.3 | 17.7 | 0.00 | 0.00 | 0.00 | ||
| 20260506121738 | 19 | 210 | 16.1 | 17.7 | 0.00 | 0.00 | 0.00 | ||
| 20260506120732 | 20 | 245 | 22.5 | 14.5 | 0.00 | 0.00 | 0.00 | ||
| 20260506114728 | 21 | 240 | 14.5 | 32.2 | 0.00 | 0.00 | 0.00 | ||
| 20260506113718 | 20 | 236 | 19.3 | 16.1 | 0.00 | 0.00 | 0.00 | ||
| 20260506112712 | 20 | 55 | 8.0 | 0.0 | 0.00 | 0.00 | 0.00 | ||
| 20260506111708 | 18 | 263 | 12.9 | 11.3 | 0.00 | 0.00 | 0.00 | ||
| 20260506110705 | 18 | 222 | 9.7 | 6.4 | 0.00 | 0.00 | 0.00 | ||
| 20260506105658 | 19 | 211 | 9.7 | 6.4 | 0.00 | 0.00 | 0.00 | ||
| 20260506104654 | 18 | 249 | 16.1 | 14.5 | 0.00 | 0.00 | 0.00 | ||
| 20260506103647 | 20 | 214 | 11.3 | 17.7 | 0.00 | 0.00 | 0.00 | ||
| 20260506102643 | 18 | 239 | 14.5 | 12.9 | 0.00 | 0.00 | 0.00 | ||
| 20260506101636 | 17 | 252 | 11.3 | 16.1 | 0.00 | 0.00 | 0.00 | ||
| 20260506100632 | 17 | 172 | 8.0 | 6.4 | 0.00 | 0.00 | 0.00 | ||
| 20260506095629 | 17 | 221 | 12.9 | 16.1 | 0.00 | 0.00 | 0.00 | ||
| 20260506094624 | 17 | 176 | 6.4 | 11.3 | 0.00 | 0.00 | 0.00 | ||
| 20260506093617 | 17 | 245 | 9.7 | 11.3 | 0.00 | 0.00 | 0.00 | ||
| 20260506092611 | 17 | 273 | 8.0 | 17.7 | 0.00 | 0.00 | 0.00 | ||
| 20260506091607 | 17 | 218 | 11.3 | 4.8 | 0.00 | 0.00 | 0.00 | ||
| 20260506090603 | 17 | 252 | 11.3 | 9.7 | 0.00 | 0.00 | 0.00 | ||
| 20260506084553 | 17 | 242 | 8.0 | 9.7 | 0.00 | 0.00 | 0.00 | ||
| 20260506083549 | 17 | 190 | 11.3 | 3.2 | 0.00 | 0.00 | 0.00 | ||
| 20260506082542 | 17 | 263 | 4.8 | 3.2 | 0.00 | 0.00 | 0.00 | ||
| 20260506081536 | 17 | 152 | 6.4 | 1.6 | 0.00 | 0.00 | 0.00 | ||
| 20260506080536 | 17 | 198 | 11.3 | 8.0 | 0.00 | 0.00 | 0.00 | ||
| 20260506073516 | 18 | 242 | 12.9 | 14.5 | 0.00 | 0.00 | 0.00 | ||
| 20260506072513 | 18 | 260 | 16.1 | 14.5 | 0.00 | 0.00 | 0.00 | ||
| 20260506071509 | 18 | 249 | 17.7 | 19.3 | 0.00 | 0.00 | 0.00 |